Torna al catalogo

STARLINK-36073

AttivoComunicazioniVLEO
NORAD 66844·PAYLOAD·🇺🇸 United States

Lanciato Dec 2, 2025 da Vandenberg Space Force Base

Loading…

Prossimi Passaggi (prossime 24 ore)

TLE

AggiornatoSource: CelesTrak SupGP

Epoca: Sep 15, 2026, 03:39 UTC

1 66844C 25280Z   26258.15256944 -.00015735  00000+0 -13186-2 0  2585
2 66844  70.0002 216.7878 0003589 265.7650 129.6982 14.98339281    10

Traccia STARLINK-36073 in tempo reale con AllMySat

Download on the App Store